Regional Weather Roundup
Issued by NWS

Home | Current Version | Previous Version | Text Only | Print | Product List | Glossary Off
Versions: 1 2 3 4 5 6 7 8 9 10 11 12 13 14 15 16 17 18 19 20 21 22 23 24 25 26 27 28 29 30 31 32 33 34 35 36 37 38 39 40 41 42 43 44 45 46 47 48 49 50

000
ASUS43 KIND 111359
RWRIN

WEATHER ROUNDUP FOR INDIANA
NATIONAL WEATHER SERVICE INDIANAPOLIS IN
900 AM EST MON DEC 11 2017

NOTE: "FAIR" INDICATES FEW OR NO CLOUDS BELOW 12,000 FEET WITH NO
SIGNIFICANT WEATHER AND/OR OBSTRUCTIONS TO VISIBILITY.

* - STATION DOES NOT REPORT WEATHER SUCH AS PRECIPITATION OR FOG.

+ - STATION NOT QUALITY CONTROLLED BY THE NATIONAL WEATHER SERVICE.
    USE DATA WITH CAUTION...ESPECIALLY DEWPOINT AND RELATIVE
    HUMIDITY OBSERVATIONS.

INZ001>003-010>013-019-020-111500-
NORTHWEST INDIANA

CITY           SKY/WX    TMP DP  RH WIND       PRES   REMARKS
GARY /AIRPORT/ CLOUDY    30  21  69 VRB6      29.98F WCI  24
MONTICELLO +   PTCLDY    27  21  79 S7        29.99F WCI  19
RENSSELAER +   CLOUDY    28  21  74 S8        29.99F WCI  20

$$

LMZ046-743>745-111500-
SOUTHERN LAKE MICHIGAN

STATION/POSITION TIME  TEMP    WIND        PRES    WAVE
                       AIR SEA DIR/SP/G            HT
                 (UTC) (F)     (DEG/KT/KT) (MB)    (FT)
BURNS HARBOR     1340   29     190/ 11/ 15 1015.6S
MICHIGAN CITY    1330   28     190/ 10/ 14   N/A

$$

INZ004-005-014>016-021>024-111500-
NORTH CENTRAL INDIANA

CITY           SKY/WX    TMP DP  RH WIND       PRES   REMARKS
ELKHART        PTCLDY    27  21  80 S7        29.98F WCI  19
GOSHEN         CLOUDY    27  21  78 S7        29.97F WCI  19
SOUTH BEND     LGT SNOW  25  22  88 S6        29.98F FOG     WCI  18

$$

INZ006>009-017-018-025>027-111500-
NORTHEAST INDIANA

CITY           SKY/WX    TMP DP  RH WIND       PRES   REMARKS
FORT WAYNE     CLOUDY    27  23  85 S7        30.00F WCI  19
KENDALLVILLE + CLOUDY    27  22  83 S7        29.98F WCI  19

$$

INZ028-029-035-036-043>045-051>053-111500-
WEST CENTRAL INDIANA

CITY           SKY/WX    TMP DP  RH WIND       PRES   REMARKS
GREENCASTLE +  CLOUDY    28  23  80 S5        30.03F WCI  23
LAFAYETTE      MOCLDY    27  23  85 S5        30.01F WCI  22
TERRE HAUTE    PTCLDY    30  23  75 S8        30.03F WCI  22

$$

INZ030>032-037>040-046>048-054>057-064-065-111500-
CENTRAL INDIANA

CITY           SKY/WX    TMP DP  RH WIND       PRES   REMARKS
COLUMBUS       CLEAR     27  23  86 CALM      30.06F
INDIANAPOLIS   CLOUDY    28  23  81 S5        30.04S WCI  23
-EAGLE CREEK   CLOUDY    29  22  75 S6        30.02F WCI  23
KOKOMO +       CLOUDY    26  23  88 S9        30.00F WCI  17
MT COMFORT *+  CLOUDY    27  25  93 S3        30.03F
SHELBYVILLE    CLOUDY    29  22  75 S7        30.03F WCI  22

$$

INZ033-034-041-042-049-050-058-059-111500-
EAST CENTRAL INDIANA

CITY           SKY/WX    TMP DP  RH WIND       PRES   REMARKS
MUNCIE         CLOUDY    28  22  78 S8        30.01F WCI  20
RICHMOND +     CLOUDY    27  25  93 S5        30.05R WCI  21

$$

INZ060-061-067>069-081>083-085>088-111500-
SOUTHWEST INDIANA

CITY           SKY/WX    TMP DP  RH WIND       PRES   REMARKS
EVANSVILLE     CLOUDY    30  29  96 CALM      30.07F
HUNTINGBURG +  CLOUDY    30  27  88 S5        30.07F WCI  25

$$

INZ062-063-066-070>080-084-089>092-111500-
SOUTH CENTRAL AND SOUTHEAST INDIANA

CITY           SKY/WX    TMP DP  RH WIND       PRES   REMARKS
BLOOMINGTON    CLOUDY    30  23  75 S3        30.03F
SEYMOUR +      CLOUDY    30  25  80 CALM      30.06F

$$





USA.gov is the U.S. government's official web portal to all federal, state and local government web resources and services.